Flag for Germany Weather past 2 weeks in Bayreuth, Bavaria, Germany

Now
48 °F

Sunny.


Feels Like: 48 °F
Forecast: 33 / 59 °F
Wind: 2 mph from Northwest

Location: Grafenwoehr

Current Time: Apr 19, 2015 at 9:56:36 PM

Latest Report: Apr 19, 2015 at 8:58 PM


Visibility: N/A

Pressure: 30.18 "Hg

Humidity: 50%

Dew point: 30 °F

Location of BayreuthLocation

Historic Weather in Bayreuth — Graph

°F

Bayreuth temperature yesterday

Maximum temperature yesterday: 50 °F (at 4:58 PM)
Minimum temperature yesterday: 28 °F (at 2:58 AM)
Average temperature yesterday: 39 °F

Past Weeks' High & Low Weather Summary

 TemperatureHumidityPressure
High73 °F (Apr 15, 4:58 PM)100% (Apr 7, 5:58 AM)30.65 "Hg (Apr 7, 5:58 AM)
Low22 °F (Apr 5, 6:58 AM)23% (Apr 15, 4:58 PM)29.84 "Hg (Apr 17, 6:58 AM)
Average45 °F68%30.25 "Hg
* Reported Apr 4 7:58 PM — Apr 19 7:58 PM, Bayreuth, Weather by CustomWeather, © 2015

Note: Actual official high and low records may vary slightly from our data, if they occured in-between our weather recording intervals... More about our weather records

Advertising

Bayreuth weather history for previous 24 hours

 ConditionsComfort  
Time TempWeatherWind HumidityBarometerVisibility
7:58 PM
Sun, Apr 19
55 °FSunny.3 mph36%30.16 "HgN/A
6:58 PM58 °FSunny.1 mph28%30.14 "HgN/A
5:58 PM60 °FSunny.5 mph30%30.14 "HgN/A
4:58 PM61 °FSunny.5 mph27%30.13 "HgN/A
3:58 PM59 °FSunny.2 mph30%30.14 "HgN/A
2:58 PM55 °FSunny.5 mph36%30.16 "HgN/A
1:58 PM57 °FSunny.5 mph36%30.17 "HgN/A
12:58 PM54 °FSunny.6 mph41%30.19 "HgN/A
11:58 AM52 °FSunny.5 mph40%30.20 "HgN/A
10:58 AM47 °FSunny.2 mph48%30.21 "HgN/A
9:58 AM43 °FSunny.3 mph58%30.22 "HgN/A
8:58 AM35 °FSunny.No wind79%30.23 "HgN/A
7:58 AM28 °FSunny.1 mph91%30.24 "HgN/A
6:58 AM24 °FClear.No wind90%30.24 "HgN/A
5:58 AM24 °FClear.No wind89%30.24 "HgN/A
4:58 AM24 °FClear.No wind90%30.24 "HgN/A
3:58 AM26 °FClear.No wind89%30.25 "HgN/A
2:58 AM27 °FClear.No wind86%30.26 "HgN/A
1:58 AM27 °FClear.No wind86%30.28 "HgN/A
12:58 AM28 °FClear.No wind80%30.28 "HgN/A
11:58 PM
Sat, Apr 18
30 °FClear.No wind80%30.29 "HgN/A
10:58 PM32 °FClear.No wind74%30.29 "HgN/A
9:58 PM34 °FClear.No wind70%30.27 "HgN/A
Weather by CustomWeather, © 2015

See weather overviewHow to use our weather pages